Weather in Huánuco

Peru     9°56′11″S   76°14′19″W
В апреле 2022 года жителям России запретили посещать сайт meteo.paraplan.net по решению Генеральной прокуратуры. Аудитория сайта уменьшилась в 10 раз. Владельцы сайта не видят смысла в поддержке погодного сервера в таких условиях. Сайт будет закрыт в октябре.
temp.,
°C
wind,
m/s
gust,
m/s
humid.,
%
clouds,
%
prec.,
mm/h
press.,
hPa
HPBL,
m
29 september, thu
thu2901:00+10sse118477 1.1 101738
04:00+9ne118881 0.1 101738
07:00+10nne118137 0.1 1019238
10:00+16ne335414 0.2 10161266
13:00+19ne643926 0.7 10112134
16:00+16ne545048 0.3 10101604
19:00+11ne237946 0.4 1015121
22:00+10ne228892 0.2 101871
30 september, fri
fri3001:00+9ne118947 0.6 101618
04:00+8nne1188100 0.3 101615
07:00+9ne1182100 0.3 1018187
10:00+15ne335470 0.3 10161364
13:00+14ne546279 1.2 10151106
16:00+13ne446284 0.4 10131060
19:00+9nne338495 0.8 1017361
22:00+9n118377 0.1 1020301
1 october, sat
sat101:00+9n118499 0.4 1019221
04:00+9n1181100 0.3 1018193
07:00+9n2281100 0.8 1021331
10:00+9ne2282100 2.3 1023462
13:00+9nne1182100 3.9 1022350
16:00+11s117062 1.0 1019597
19:00+8s118012 1.0 102122
22:00+7ssw118410 0.0 102212
2 october, sun
sun201:00+7sw227711 0.0 102015
04:00+6sw017982 0.0 102011
07:00+10ese006270 0.0 1023111
10:00+15nne224741 0.0 10211387
13:00+17ene544397 0.3 10161870
16:00+15ne435947 1.3 10161111
19:00+10nne1183100 2.0 101925
22:00+9n1189100 0.3 102226
3 october, mon
mon301:00+9sw128826 0.4 102013
04:00+8s11868 0.0 101910
07:00+10sse117126 0.0 1021166
10:00+16ne334912 0.1 10191498
13:00+18ene544495 0.2 10141800
16:00+16ne545783 0.6 10141355
19:00+11ne228314 1.0 1017120
22:00+10wsw11875 0.1 101934